EW8016 Weather Reports


time (UTC)temp
F
wind
direction
speed
knots
gust
knots
rain 1hr
in
rain 24hr
in
rain mn
in
humidity
%
barometer
mb
20260502195508 67 11 0.0 1.7 0.00 0.00 0.00 73 1014.6
20260502195008 67 11 0.0 2.6 0.00 0.00 0.00 72 1014.6
20260502194718 67 11 0.9 2.6 0.00 0.00 0.00 72 1014.6
20260502194221 68 350 0.9 3.5 0.00 0.00 0.00 71 1014.6
20260502193503 68 335 0.9 3.5 0.00 0.00 0.00 70 1014.5
20260502193005 68 337 0.9 3.5 0.00 0.00 0.00 70 1014.4
20260502192503 69 340 1.7 4.3 0.00 0.00 0.00 69 1014.5
20260502192005 69 348 1.7 4.3 0.00 0.00 0.00 68 1014.4
20260502191503 70 354 1.7 4.3 0.00 0.00 0.00 66 1014.3
20260502191003 70 351 1.7 7.0 0.00 0.00 0.00 65 1014.4
20260502190505 71 341 2.6 7.0 0.00 0.00 0.00 63 1014.4
20260502190003 71 341 1.7 7.0 0.00 0.00 0.00 61 1014.3
20260502185503 72 355 0.0 7.0 0.00 0.00 0.00 59 1014.1
20260502185004 72 0 0.0 0.0 0.00 0.00 0.00 58 1014.2
20260502184503 72 0 0.0 0.0 0.00 0.00 0.00 58 1014.2
20260502184218 72 0 0.0 0.0 0.00 0.00 0.00 57 1014.2
20260502183504 73 0 0.0 0.0 0.00 0.00 0.00 57 1014.3
20260502183003 73 0 0.0 0.0 0.00 0.00 0.00 56 1014.3
20260502182717 73 229 0.0 0.9 0.00 0.00 0.00 56 1014.3
20260502182003 73 284 0.9 3.5 0.00 0.00 0.00 56 1014.3
20260502181504 74 291 0.9 3.5 0.00 0.00 0.00 56 1014.3
20260502181003 74 291 0.9 3.5 0.00 0.00 0.00 55 1014.3
20260502180505 74 286 1.7 3.5 0.00 0.00 0.00 55 1014.2
20260502170505 78 198 2.6 6.1 0.00 0.00 0.00 49 1014.5
20260502164006 78 179 1.7 5.2 0.00 0.00 0.00 50 1014.8
20260502163506 78 163 1.7 4.3 0.00 0.00 0.00 50 1014.8
20260502163217 78 150 1.7 5.2 0.00 0.00 0.00 51 1014.8
20260502162510 77 163 1.7 8.7 0.00 0.00 0.00 50 1015.0
20260502162003 77 164 1.7 6.1 0.00 0.00 0.00 51 1015.0
20260502161716 77 161 2.6 6.1 0.00 0.00 0.00 51 1015.1
20260502161224 77 166 2.6 8.7 0.00 0.00 0.00 52 1015.1
20260502160503 77 154 3.5 8.7 0.00 0.00 0.00 50 1015.2
20260502152217 77 228 2.6 7.8 0.00 0.00 0.00 49 1015.6
20260502151504 77 244 2.6 8.7 0.00 0.00 0.00 49 1015.6
20260502151005 78 226 2.6 8.7 0.00 0.00 0.00 48 1015.7
20260502150503 78 193 2.6 7.8 0.00 0.00 0.00 48 1015.8
20260502130503 77 244 5.2 12.2 0.00 0.00 0.00 48 1017.1
20260502123505 77 210 5.2 12.2 0.00 0.00 0.00 48 1017.3
20260502123006 77 223 4.3 12.2 0.00 0.00 0.00 48 1017.4
20260502122503 77 191 4.3 10.4 0.00 0.00 0.00 48 1017.4
20260502122003 77 183 3.5 9.6 0.00 0.00 0.00 48 1017.4
20260502121507 77 172 4.3 11.3 0.00 0.00 0.00 48 1017.4
20260502121007 77 168 6.1 13.0 0.00 0.00 0.00 47 1017.6
20260502120503 78 170 4.3 13.0 0.00 0.00 0.00 46 1017.6
20260502115505 77 231 4.3 12.2 0.00 0.00 0.00 47 1017.6
20260502115004 77 245 5.2 12.2 0.00 0.00 0.00 47 1017.6
20260502114503 77 206 4.3 11.3 0.00 0.00 0.00 48 1017.7
20260502114003 77 186 5.2 11.3 0.00 0.00 0.00 47 1017.7
20260502113503 78 201 5.2 11.3 0.00 0.00 0.00 46 1017.8
20260502113005 78 208 5.2 10.4 0.00 0.00 0.00 46 1017.7
20260502112504 77 188 5.2 10.4 0.00 0.00 0.00 46 1017.8
20260502112004 77 176 5.2 11.3 0.00 0.00 0.00 47 1017.8
20260502111717 77 172 5.2 11.3 0.00 0.00 0.00 46 1017.8
20260502111220 77 179 5.2 11.3 0.00 0.00 0.00 46 1017.9
20260502110504 77 193 4.3 11.3 0.00 0.00 0.00 46 1017.8
20260502110218 77 201 4.3 9.6 0.00 0.00 0.00 46 1017.9
20260502105504 77 194 4.3 13.0 0.00 0.00 0.00 46 1017.8
20260502105006 76 167 5.2 13.0 0.00 0.00 0.00 46 1017.9
20260502104503 77 173 5.2 11.3 0.00 0.00 0.00 46 1018.0
20260502104004 77 173 5.2 10.4 0.00 0.00 0.00 44 1018.1
20260502103504 77 168 5.2 10.4 0.00 0.00 0.00 44 1018.1
20260502103005 76 183 5.2 14.8 0.00 0.00 0.00 43 1018.2
20260502102503 76 188 4.3 14.8 0.00 0.00 0.00 42 1018.2
20260502102008 76 178 3.5 9.6 0.00 0.00 0.00 42 1018.2
20260502101505 76 169 3.5 9.6 0.00 0.00 0.00 42 1018.2
20260502101009 75 184 3.5 7.8 0.00 0.00 0.00 42 1018.3
20260502100720 75 210 3.5 9.6 0.00 0.00 0.00 41 1018.2
20260502091503 72 179 2.6 7.8 0.00 0.00 0.00 46 1018.5
20260502091003 71 183 2.6 7.0 0.00 0.00 0.00 46 1018.5
20260502090504 70 167 4.3 9.6 0.00 0.00 0.00 46 1018.5
20260502071504 64 163 3.5 6.1 0.00 0.00 0.00 54 1018.8
20260502071003 64 154 3.5 7.8 0.00 0.00 0.00 55 1019.0
20260502070503 63 158 3.5 7.8 0.00 0.00 0.00 56 1018.9
20260502070218 63 160 4.3 7.8 0.00 0.00 0.00 56 1019.0
20260502065719 62 157 4.3 7.0 0.00 0.00 0.00 57 1018.9
20260502065007 61 154 5.2 9.6 0.00 0.00 0.00 58 1018.9
20260502064508 61 156 4.3 9.6 0.00 0.00 0.00 59 1019.0
20260502064004 60 156 4.3 9.6 0.00 0.00 0.00 60 1019.1
20260502063719 60 156 4.3 9.6 0.00 0.00 0.00 60 1019.0
20260502063005 59 160 4.3 8.7 0.00 0.00 0.00 62 1019.0
20260502062504 58 162 4.3 7.8 0.00 0.00 0.00 63 1019.0
20260502062005 58 160 3.5 7.8 0.00 0.00 0.00 64 1019.1
20260502061717 57 159 4.3 7.8 0.00 0.00 0.00 64 1019.0
20260502061005 56 150 3.5 7.0 0.00 0.00 0.00 66 1019.0
20260502060504 55 156 3.5 7.0 0.00 0.00 0.00 68 1019.0
20260502060003 55 151 2.6 6.1 0.00 0.00 0.00 68 1018.9
20260502055503 54 144 2.6 6.1 0.00 0.00 0.00 69 1019.0
20260502055220 54 143 2.6 6.1 0.00 0.00 0.00 70 1018.9
20260502054504 53 140 2.6 6.1 0.00 0.00 0.00 71 1018.9
20260502054005 52 139 2.6 6.1 0.00 0.00 0.00 72 1019.1
20260502053504 52 143 2.6 5.2 0.00 0.00 0.00 73 1019.0
20260502053006 51 151 1.7 5.2 0.00 0.00 0.00 73 1019.0
20260502052506 51 153 1.7 4.3 0.00 0.00 0.00 73 1019.0
20260502052005 50 156 1.7 4.3 0.00 0.00 0.00 73 1019.1
20260502051507 50 157 1.7 3.5 0.00 0.00 0.00 73 1019.1
20260502051219 50 156 0.9 2.6 0.00 0.00 0.00 73 1019.1
20260502050503 50 156 0.9 2.6 0.00 0.00 0.00 73 1019.1
20260502050005 50 156 0.9 1.7 0.00 0.00 0.00 73 1019.2
20260502045503 49 156 0.9 2.6 0.00 0.00 0.00 74 1019.2
20260502045006 49 156 1.7 2.6 0.00 0.00 0.00 74 1019.2
20260502044503 49 156 0.9 2.6 0.00 0.00 0.00 73 1019.1
20260502044004 49 156 0.9 1.7 0.00 0.00 0.00 73 1019.0
20260502043503 49 156 0.9 1.7 0.00 0.00 0.00 73 1019.0
20260502043005 49 156 0.9 1.7 0.00 0.00 0.00 72 1019.1
20260502042505 49 156 0.9 1.7 0.00 0.00 0.00 72 1019.1
20260502042003 50 156 0.9 2.6 0.00 0.00 0.00 72 1019.2
20260502041503 50 156 1.7 2.6 0.00 0.00 0.00 72 1019.1
20260502041005 50 148 1.7 3.5 0.00 0.00 0.00 71 1019.2
20260502040504 50 138 1.7 3.5 0.00 0.00 0.00 71 1019.3
20260502040003 50 135 1.7 3.5 0.00 0.00 0.00 71 1019.3
20260502035503 50 135 1.7 3.5 0.00 0.00 0.00 71 1019.3
20260502035005 50 135 0.9 2.6 0.00 0.00 0.00 71 1019.3
20260502034722 50 135 0.9 2.6 0.00 0.00 0.00 71 1019.4
20260502034010 50 0 0.0 0.0 0.00 0.00 0.00 70 1019.3
20260502033503 50 0 0.0 0.0 0.00 0.00 0.00 70 1019.4
20260502033005 50 0 0.0 0.0 0.00 0.00 0.00 70 1019.5
20260502032504 50 0 0.0 0.0 0.00 0.00 0.00 69 1019.4
20260502032005 50 0 0.0 0.0 0.00 0.00 0.00 69 1019.4
20260502031720 50 0 0.0 0.0 0.00 0.00 0.00 69 1019.5
20260502031005 51 0 0.0 0.0 0.00 0.00 0.00 68 1019.4
20260502030718 51 0 0.0 0.0 0.00 0.00 0.00 68 1019.5
20260502030003 51 135 0.9 1.7 0.00 0.00 0.00 68 1019.6
20260502025504 51 135 0.9 1.7 0.00 0.00 0.00 68 1019.7
20260502025006 51 135 0.9 2.6 0.00 0.00 0.00 67 1019.6
20260502024721 51 135 0.9 2.6 0.00 0.00 0.00 67 1019.6
20260502024004 52 135 0.9 1.7 0.00 0.00 0.00 67 1019.6
20260502023503 52 135 0.9 1.7 0.00 0.00 0.00 66 1019.6
20260502023003 52 135 1.7 2.6 0.00 0.00 0.00 66 1019.6
20260502022504 52 135 1.7 2.6 0.00 0.00 0.00 66 1019.7
20260502022006 52 135 1.7 2.6 0.00 0.00 0.00 66 1019.7
20260502021717 52 135 1.7 2.6 0.00 0.00 0.00 66 1019.7
20260502021006 52 135 1.7 2.6 0.00 0.00 0.00 65 1019.7
20260502020719 52 135 1.7 2.6 0.00 0.00 0.00 65 1019.7
20260502020003 52 135 1.7 2.6 0.00 0.00 0.00 65 1019.8
20260502015505 52 135 0.9 2.6 0.00 0.00 0.00 65 1019.9
20260502015218 52 135 0.9 2.6 0.00 0.00 0.00 65 1019.8
20260502014503 52 135 0.9 2.6 0.00 0.00 0.00 64 1019.9
20260502014218 53 135 0.9 2.6 0.00 0.00 0.00 64 1020.0
20260502013503 53 135 1.7 2.6 0.00 0.00 0.00 64 1020.0
20260502013008 53 135 0.9 2.6 0.00 0.00 0.00 64 1020.0
20260502012503 53 135 0.9 2.6 0.00 0.00 0.00 64 1020.1
20260502012003 53 135 0.9 2.6 0.00 0.00 0.00 63 1020.2
20260502011719 53 135 0.9 2.6 0.00 0.00 0.00 63 1020.2
20260502011003 54 135 0.0 2.6 0.00 0.00 0.00 63 1020.3
20260502010505 54 135 0.0 1.7 0.00 0.00 0.00 62 1020.3
20260502010003 54 135 0.0 1.7 0.00 0.00 0.00 62 1020.5
20260502005719 54 135 0.0 1.7 0.00 0.00 0.00 61 1020.5
20260502005003 54 135 0.9 2.6 0.00 0.00 0.00 61 1020.5
20260502004503 54 135 0.9 1.7 0.00 0.00 0.00 61 1020.6
20260502004006 54 135 0.0 1.7 0.00 0.00 0.00 61 1020.6
20260502003503 54 140 0.9 3.5 0.00 0.00 0.00 60 1020.7
20260502003004 54 144 0.9 3.5 0.00 0.00 0.00 61 1020.6
20260502002506 54 147 1.7 2.6 0.00 0.00 0.00 61 1020.6
20260502002003 54 147 0.9 2.6 0.00 0.00 0.00 61 1020.7
20260502001716 54 147 0.0 1.7 0.00 0.00 0.00 61 1020.8
20260502001006 54 147 0.0 2.6 0.00 0.00 0.00 61 1020.9
20260502000503 55 147 0.0 2.6 0.00 0.00 0.00 61 1020.9
20260502000007 55 147 0.0 1.7 0.00 0.00 0.00 60 1020.8
20260501235503 55 147 0.0 1.7 0.00 0.00 0.00 60 1020.8
20260501235006 55 147 0.0 2.6 0.00 0.00 0.00 60 1020.9
20260501234716 55 147 0.0 2.6 0.00 0.00 0.00 60 1020.9
20260501234005 55 140 0.9 2.6 0.00 0.00 0.00 59 1021.0
20260501233504 55 140 0.9 2.6 0.00 0.00 0.00 59 1020.9
20260501233004 56 140 0.0 2.6 0.00 0.00 0.00 59 1021.0
20260501232505 56 0 0.0 0.0 0.00 0.00 0.00 59 1021.0
20260501232003 56 156 0.0 1.7 0.00 0.00 0.00 59 1021.0
20260501231504 56 156 0.9 4.3 0.00 0.00 0.00 59 1021.0
20260501231005 55 156 0.9 4.3 0.00 0.00 0.00 59 1021.1
20260501230718 55 156 0.9 2.6 0.00 0.00 0.00 59 1021.0
20260501230003 55 156 0.9 4.3 0.00 0.00 0.00 59 1021.1
20260501225503 55 157 0.9 4.3 0.00 0.00 0.00 59 1021.0
20260501225004 55 158 0.9 4.3 0.00 0.00 0.00 60 1021.2
20260501224718 55 158 0.9 1.7 0.00 0.00 0.00 60 1021.2
20260501224003 55 0 0.0 0.0 0.00 0.00 0.00 62 1021.2
20260501223507 55 0 0.0 0.0 0.00 0.00 0.00 64 1021.3
20260501223003 55 0 0.0 0.0 0.00 0.00 0.00 64 1021.3
20260501222508 55 0 0.0 0.0 0.00 0.00 0.00 63 1021.3
20260501222003 55 0 0.0 0.0 0.00 0.00 0.00 63 1021.3
20260501221503 55 0 0.0 0.0 0.00 0.00 0.00 63 1021.3
20260501221005 56 0 0.0 0.0 0.00 0.00 0.00 62 1021.4
20260501220505 56 0 0.0 0.0 0.00 0.00 0.00 62 1021.5
20260501220003 56 0 0.0 0.0 0.00 0.00 0.00 62 1021.4
20260501215505 56 0 0.0 0.0 0.00 0.00 0.00 62 1021.5
20260501215003 56 0 0.0 0.0 0.00 0.00 0.00 62 1021.5
20260501214507 56 0 0.0 0.0 0.00 0.00 0.00 61 1021.4
20260501214006 57 0 0.0 0.0 0.00 0.00 0.00 61 1021.6
20260501213513 57 0 0.0 0.0 0.00 0.00 0.00 61 1021.6
20260501213217 57 0 0.0 0.0 0.00 0.00 0.00 61 1021.6
20260501212503 57 0 0.0 0.0 0.00 0.00 0.00 60 1021.6
20260501212003 57 0 0.0 0.0 0.00 0.00 0.00 61 1021.6
20260501211503 57 0 0.0 0.0 0.00 0.00 0.00 60 1021.7
20260501211216 58 0 0.0 0.0 0.00 0.00 0.00 60 1021.7
20260501210510 58 0 0.0 0.0 0.00 0.00 0.00 59 1021.7
20260501210005 58 0 0.0 0.0 0.00 0.00 0.00 59 1021.7
20260501205505 58 0 0.0 0.0 0.00 0.00 0.00 59 1021.8
20260501205003 59 0 0.0 0.0 0.00 0.00 0.00 58 1021.8
20260501204506 59 0 0.0 0.0 0.00 0.00 0.00 57 1021.8
20260501204005 60 0 0.0 0.0 0.00 0.00 0.00 57 1021.9
20260501203503 60 0 0.0 0.0 0.00 0.00 0.00 56 1021.9
20260501203006 60 0 0.0 0.0 0.00 0.00 0.00 55 1021.9
20260501202503 61 0 0.0 0.0 0.00 0.00 0.00 54 1021.9
20260501202003 61 0 0.0 0.0 0.00 0.00 0.00 54 1022.0
20260501201505 62 0 0.0 0.0 0.00 0.00 0.00 53 1022.0
20260501201218 62 0 0.0 0.0 0.00 0.00 0.00 53 1022.1
20260501200717 62 0 0.0 0.0 0.00 0.00 0.00 51 1022.0